| time (UTC) | temp C | wind direction | speed KPH | gust KPH | rain 1hr cm | rain 24hr cm | rain mn cm | humidity % | barometer mb |
| 20260901081528 | 28 | 196 | 0.0 | 1.6 | 0.00 | 0.00 | 0.00 | 65 | 1016.6 |
| 20260901081004 | 29 | 196 | 0.0 | 8.0 | 0.00 | 0.00 | 0.00 | 64 | 1016.6 |
| 20260901080504 | 29 | 196 | 0.0 | 8.0 | 0.00 | 0.00 | 0.00 | 64 | 1016.5 |
| 20260901080010 | 29 | 199 | 0.0 | 6.4 | 0.00 | 0.00 | 0.00 | 63 | 1016.5 |
| 20260901075505 | 29 | 214 | 0.0 | 6.4 | 0.00 | 0.00 | 0.00 | 63 | 1016.5 |
| 20260901075010 | 29 | 219 | 0.0 | 6.4 | 0.00 | 0.00 | 0.00 | 63 | 1016.5 |
| 20260901074516 | 29 | 211 | 0.0 | 9.7 | 0.00 | 0.00 | 0.00 | 64 | 1016.5 |
| 20260901074012 | 29 | 193 | 0.0 | 9.7 | 0.00 | 0.00 | 0.00 | 63 | 1016.4 |
| 20260901073508 | 29 | 205 | 0.0 | 9.7 | 0.00 | 0.00 | 0.00 | 63 | 1016.5 |
| 20260901073035 | 30 | 198 | 1.6 | 9.7 | 0.00 | 0.00 | 0.00 | 63 | 1016.5 |
| 20260901072513 | 30 | 153 | 1.6 | 9.7 | 0.00 | 0.00 | 0.00 | 62 | 1016.5 |
| 20260901072012 | 30 | 181 | 3.2 | 11.3 | 0.00 | 0.00 | 0.00 | 62 | 1016.5 |
| 20260901071528 | 30 | 155 | 1.6 | 11.3 | 0.00 | 0.00 | 0.00 | 62 | 1016.5 |
| 20260901071014 | 30 | 155 | 0.0 | 11.3 | 0.00 | 0.00 | 0.00 | 62 | 1016.5 |
| 20260901070514 | 30 | 184 | 1.6 | 12.9 | 0.00 | 0.00 | 0.00 | 62 | 1016.4 |
| 20260901070032 | 30 | 161 | 3.2 | 12.9 | 0.00 | 0.00 | 0.00 | 61 | 1016.4 |
| 20260901065506 | 30 | 165 | 0.0 | 8.0 | 0.00 | 0.00 | 0.00 | 62 | 1016.5 |
| 20260901065006 | 30 | 167 | 0.0 | 11.3 | 0.00 | 0.00 | 0.00 | 61 | 1016.5 |
| 20260901064515 | 30 | 167 | 0.0 | 11.3 | 0.00 | 0.00 | 0.00 | 60 | 1016.4 |
| 20260901064006 | 30 | 158 | 0.0 | 4.8 | 0.00 | 0.00 | 0.00 | 60 | 1016.4 |
| 20260901063509 | 30 | 158 | 0.0 | 8.0 | 0.00 | 0.00 | 0.00 | 60 | 1016.4 |
| 20260901063022 | 30 | 157 | 0.0 | 8.0 | 0.00 | 0.00 | 0.00 | 60 | 1016.4 |
| 20260901062510 | 30 | 159 | 0.0 | 8.0 | 0.00 | 0.00 | 0.00 | 59 | 1016.3 |
| 20260901062013 | 30 | 160 | 0.0 | 11.3 | 0.00 | 0.00 | 0.00 | 59 | 1016.3 |
| 20260901061524 | 30 | 157 | 0.0 | 11.3 | 0.00 | 0.00 | 0.00 | 58 | 1016.2 |
| 20260901061012 | 30 | 163 | 0.0 | 12.9 | 0.00 | 0.00 | 0.00 | 58 | 1016.2 |
| 20260901060513 | 30 | 141 | 1.6 | 12.9 | 0.00 | 0.00 | 0.00 | 58 | 1016.1 |
| 20260901060038 | 30 | 135 | 1.6 | 12.9 | 0.00 | 0.00 | 0.00 | 58 | 1016.1 |
| 20260901055513 | 30 | 138 | 3.2 | 12.9 | 0.00 | 0.00 | 0.00 | 57 | 1016.0 |
| 20260901055020 | 30 | 137 | 3.2 | 12.9 | 0.00 | 0.00 | 0.00 | 57 | 1016.0 |
| 20260901054530 | 30 | 124 | 1.6 | 16.1 | 0.00 | 0.00 | 0.00 | 57 | 1016.0 |
| 20260901054008 | 31 | 129 | 3.2 | 16.1 | 0.00 | 0.00 | 0.00 | 57 | 1015.9 |
| 20260901053508 | 31 | 128 | 3.2 | 14.5 | 0.00 | 0.00 | 0.00 | 56 | 1015.9 |
| 20260901053015 | 31 | 134 | 6.4 | 16.1 | 0.00 | 0.00 | 0.00 | 56 | 1015.9 |
| 20260901052509 | 31 | 132 | 4.8 | 16.1 | 0.00 | 0.00 | 0.00 | 56 | 1015.8 |
| 20260901052011 | 31 | 146 | 1.6 | 16.1 | 0.00 | 0.00 | 0.00 | 55 | 1015.8 |
| 20260901051522 | 31 | 121 | 3.2 | 19.3 | 0.00 | 0.00 | 0.00 | 55 | 1015.8 |
| 20260901051010 | 31 | 102 | 4.8 | 19.3 | 0.00 | 0.00 | 0.00 | 55 | 1015.8 |
| 20260901050512 | 31 | 154 | 3.2 | 16.1 | 0.00 | 0.00 | 0.00 | 55 | 1015.7 |
| 20260901050027 | 31 | 154 | 1.6 | 12.9 | 0.00 | 0.00 | 0.00 | 55 | 1015.6 |
| 20260901045513 | 31 | 154 | 1.6 | 12.9 | 0.00 | 0.00 | 0.00 | 55 | 1015.6 |
| 20260901045014 | 31 | 136 | 1.6 | 8.0 | 0.00 | 0.00 | 0.00 | 54 | 1015.6 |
| 20260901044528 | 31 | 141 | 0.0 | 6.4 | 0.00 | 0.00 | 0.00 | 54 | 1015.6 |
| 20260901044019 | 31 | 139 | 0.0 | 6.4 | 0.00 | 0.00 | 0.00 | 54 | 1015.5 |
| 20260901043517 | 31 | 131 | 0.0 | 4.8 | 0.00 | 0.00 | 0.00 | 54 | 1015.5 |
| 20260901043032 | 31 | 130 | 0.0 | 4.8 | 0.00 | 0.00 | 0.00 | 54 | 1015.5 |
| 20260901042506 | 31 | 128 | 0.0 | 0.0 | 0.00 | 0.00 | 0.00 | 54 | 1015.5 |
| 20260901042006 | 31 | 128 | 0.0 | 4.8 | 0.00 | 0.00 | 0.00 | 54 | 1015.4 |
| 20260901041517 | 31 | 128 | 0.0 | 6.4 | 0.00 | 0.00 | 0.00 | 54 | 1015.5 |
| 20260901041009 | 31 | 128 | 0.0 | 8.0 | 0.00 | 0.00 | 0.00 | 53 | 1015.5 |
| 20260901040511 | 31 | 128 | 0.0 | 8.0 | 0.00 | 0.00 | 0.00 | 53 | 1015.4 |
| 20260901040024 | 31 | 129 | 0.0 | 8.0 | 0.00 | 0.00 | 0.00 | 53 | 1015.4 |
| 20260901035512 | 31 | 149 | 0.0 | 8.0 | 0.00 | 0.00 | 0.00 | 52 | 1015.4 |
| 20260901035011 | 31 | 150 | 1.6 | 4.8 | 0.00 | 0.00 | 0.00 | 52 | 1015.4 |
| 20260901034532 | 31 | 150 | 0.0 | 4.8 | 0.00 | 0.00 | 0.00 | 52 | 1015.3 |
| 20260901034004 | 31 | 150 | 0.0 | 4.8 | 0.00 | 0.00 | 0.00 | 53 | 1015.3 |
| 20260901033508 | 31 | 150 | 0.0 | 4.8 | 0.00 | 0.00 | 0.00 | 53 | 1015.4 |
| 20260901033013 | 31 | 150 | 0.0 | 4.8 | 0.00 | 0.00 | 0.00 | 54 | 1015.3 |
| 20260901032504 | 31 | 152 | 0.0 | 1.6 | 0.00 | 0.00 | 0.00 | 54 | 1015.3 |
| 20260901032004 | 31 | 152 | 0.0 | 1.6 | 0.00 | 0.00 | 0.00 | 55 | 1015.3 |
| 20260901031512 | 31 | 152 | 0.0 | 1.6 | 0.00 | 0.00 | 0.00 | 55 | 1015.3 |
| 20260901031008 | 31 | 152 | 0.0 | 1.6 | 0.00 | 0.00 | 0.00 | 54 | 1015.3 |
| 20260901030509 | 31 | 152 | 0.0 | 1.6 | 0.00 | 0.00 | 0.00 | 54 | 1015.2 |
| 20260901030018 | 31 | 152 | 0.0 | 1.6 | 0.00 | 0.00 | 0.00 | 53 | 1015.2 |
| 20260901025511 | 31 | 152 | 0.0 | 1.6 | 0.00 | 0.00 | 0.00 | 53 | 1015.1 |
| 20260901025010 | 31 | 152 | 0.0 | 1.6 | 0.00 | 0.00 | 0.00 | 53 | 1015.1 |
| 20260901024525 | 31 | 152 | 0.0 | 1.6 | 0.00 | 0.00 | 0.00 | 53 | 1014.9 |
| 20260901024014 | 31 | 152 | 0.0 | 3.2 | 0.00 | 0.00 | 0.00 | 53 | 1014.8 |
| 20260901023515 | 31 | 152 | 0.0 | 3.2 | 0.00 | 0.00 | 0.00 | 56 | 1014.7 |
| 20260901023030 | 32 | 152 | 0.0 | 1.6 | 0.00 | 0.00 | 0.00 | 56 | 1014.7 |
| 20260901022504 | 32 | 152 | 0.0 | 0.0 | 0.00 | 0.00 | 0.00 | 54 | 1014.6 |
| 20260901022006 | 32 | 152 | 0.0 | 0.0 | 0.00 | 0.00 | 0.00 | 53 | 1014.5 |
| 20260901021521 | 32 | 152 | 0.0 | 0.0 | 0.00 | 0.00 | 0.00 | 53 | 1014.5 |
| 20260901021006 | 32 | 152 | 0.0 | 0.0 | 0.00 | 0.00 | 0.00 | 52 | 1014.4 |
| 20260901020507 | 32 | 152 | 0.0 | 1.6 | 0.00 | 0.00 | 0.00 | 52 | 1014.4 |
| 20260901020018 | 32 | 152 | 0.0 | 1.6 | 0.00 | 0.00 | 0.00 | 52 | 1014.4 |
| 20260901015507 | 33 | 152 | 0.0 | 0.0 | 0.00 | 0.00 | 0.00 | 51 | 1014.4 |
| 20260901015012 | 33 | 152 | 0.0 | 0.0 | 0.00 | 0.00 | 0.00 | 51 | 1014.4 |
| 20260901014524 | 33 | 152 | 0.0 | 1.6 | 0.00 | 0.00 | 0.00 | 51 | 1014.3 |
| 20260901014012 | 33 | 152 | 0.0 | 1.6 | 0.00 | 0.00 | 0.00 | 51 | 1014.3 |
| 20260901013513 | 33 | 152 | 0.0 | 1.6 | 0.00 | 0.00 | 0.00 | 51 | 1014.4 |
| 20260901013026 | 34 | 152 | 0.0 | 1.6 | 0.00 | 0.00 | 0.00 | 51 | 1014.3 |
| 20260901012511 | 34 | 152 | 0.0 | 1.6 | 0.00 | 0.00 | 0.00 | 51 | 1014.4 |
| 20260901012014 | 34 | 152 | 0.0 | 4.8 | 0.00 | 0.00 | 0.00 | 51 | 1014.3 |
| 20260901011537 | 35 | 152 | 0.0 | 4.8 | 0.00 | 0.00 | 0.00 | 50 | 1014.2 |
| 20260901011005 | 35 | 152 | 0.0 | 3.2 | 0.00 | 0.00 | 0.00 | 49 | 1014.2 |
| 20260901010504 | 35 | 152 | 0.0 | 3.2 | 0.00 | 0.00 | 0.00 | 47 | 1014.2 |
| 20260901010019 | 35 | 153 | 0.0 | 3.2 | 0.00 | 0.00 | 0.00 | 47 | 1014.1 |
| 20260901005507 | 35 | 151 | 0.0 | 4.8 | 0.00 | 0.00 | 0.00 | 46 | 1014.1 |
| 20260901005008 | 35 | 151 | 0.0 | 4.8 | 0.00 | 0.00 | 0.00 | 45 | 1014.1 |
| 20260901004535 | 36 | 149 | 0.0 | 11.3 | 0.00 | 0.00 | 0.00 | 43 | 1014.0 |
| 20260901004008 | 36 | 138 | 1.6 | 11.3 | 0.00 | 0.00 | 0.00 | 42 | 1014.0 |
| 20260901003511 | 36 | 173 | 0.0 | 11.3 | 0.00 | 0.00 | 0.00 | 40 | 1014.0 |
| 20260901003024 | 36 | 140 | 1.6 | 14.5 | 0.00 | 0.00 | 0.00 | 40 | 1014.0 |
| 20260901002514 | 36 | 155 | 1.6 | 14.5 | 0.00 | 0.00 | 0.00 | 39 | 1014.0 |
| 20260901002018 | 36 | 196 | 1.6 | 14.5 | 0.00 | 0.00 | 0.00 | 39 | 1014.0 |
| 20260901001529 | 36 | 123 | 1.6 | 12.9 | 0.00 | 0.00 | 0.00 | 40 | 1014.0 |
| 20260901001013 | 36 | 154 | 4.8 | 12.9 | 0.00 | 0.00 | 0.00 | 40 | 1014.0 |
| 20260901000512 | 36 | 120 | 3.2 | 16.1 | 0.00 | 0.00 | 0.00 | 40 | 1014.0 |
| 20260901000034 | 36 | 128 | 6.4 | 16.1 | 0.00 | 0.00 | 0.00 | 39 | 1014.0 |
| 20260831235504 | 37 | 121 | 9.7 | 16.1 | 0.00 | 0.00 | 0.00 | 38 | 1014.0 |
| 20260831235006 | 37 | 134 | 4.8 | 14.5 | 0.00 | 0.00 | 0.00 | 38 | 1014.0 |
| 20260831234516 | 37 | 157 | 3.2 | 19.3 | 0.00 | 0.00 | 0.00 | 38 | 1014.2 |
| 20260831234010 | 37 | 168 | 1.6 | 19.3 | 0.00 | 0.00 | 0.00 | 38 | 1014.1 |
| 20260831233507 | 37 | 103 | 3.2 | 12.9 | 0.00 | 0.00 | 0.00 | 38 | 1014.1 |
| 20260831233036 | 37 | 132 | 1.6 | 14.5 | 0.00 | 0.00 | 0.00 | 38 | 1014.0 |
| 20260831232514 | 37 | 123 | 4.8 | 17.7 | 0.00 | 0.00 | 0.00 | 36 | 1014.0 |
| 20260831232012 | 38 | 128 | 11.3 | 17.7 | 0.00 | 0.00 | 0.00 | 35 | 1014.0 |
| 20260831231535 | 38 | 164 | 1.6 | 12.9 | 0.00 | 0.00 | 0.00 | 34 | 1013.9 |
| 20260831231014 | 38 | 144 | 0.0 | 8.0 | 0.00 | 0.00 | 0.00 | 34 | 1013.9 |
| 20260831230514 | 38 | 202 | 1.6 | 8.0 | 0.00 | 0.00 | 0.00 | 34 | 1013.9 |
| 20260831230027 | 38 | 112 | 0.0 | 6.4 | 0.00 | 0.00 | 0.00 | 35 | 1014.0 |
| 20260831225514 | 38 | 182 | 0.0 | 16.1 | 0.00 | 0.00 | 0.00 | 35 | 1014.0 |
| 20260831225018 | 38 | 184 | 0.0 | 16.1 | 0.00 | 0.00 | 0.00 | 35 | 1014.0 |
| 20260831224532 | 38 | 187 | 0.0 | 11.3 | 0.00 | 0.00 | 0.00 | 36 | 1014.0 |
| 20260831224006 | 38 | 171 | 3.2 | 11.3 | 0.00 | 0.00 | 0.00 | 35 | 1014.1 |
| 20260831223507 | 38 | 102 | 3.2 | 12.9 | 0.00 | 0.00 | 0.00 | 34 | 1014.2 |
| 20260831223018 | 38 | 158 | 1.6 | 12.9 | 0.00 | 0.00 | 0.00 | 34 | 1014.2 |
| 20260831222508 | 38 | 118 | 6.4 | 16.1 | 0.00 | 0.00 | 0.00 | 34 | 1014.3 |
| 20260831222012 | 38 | 118 | 0.0 | 17.7 | 0.00 | 0.00 | 0.00 | 33 | 1014.3 |
| 20260831221532 | 39 | 118 | 9.7 | 17.7 | 0.00 | 0.00 | 0.00 | 33 | 1014.3 |
| 20260831221011 | 40 | 143 | 1.6 | 16.1 | 0.00 | 0.00 | 0.00 | 33 | 1014.3 |
| 20260831220513 | 39 | 167 | 0.0 | 12.9 | 0.00 | 0.00 | 0.00 | 34 | 1014.3 |
| 20260831220026 | 39 | 163 | 1.6 | 12.9 | 0.00 | 0.00 | 0.00 | 33 | 1014.4 |
| 20260831215514 | 39 | 163 | 1.6 | 12.9 | 0.00 | 0.00 | 0.00 | 33 | 1014.4 |
| 20260831215015 | 39 | 277 | 0.0 | 12.9 | 0.00 | 0.00 | 0.00 | 33 | 1014.5 |
| 20260831214539 | 39 | 146 | 3.2 | 12.9 | 0.00 | 0.00 | 0.00 | 33 | 1014.7 |
| 20260831214015 | 39 | 169 | 3.2 | 12.9 | 0.00 | 0.00 | 0.00 | 33 | 1014.6 |
| 20260831213516 | 39 | 173 | 3.2 | 14.5 | 0.00 | 0.00 | 0.00 | 34 | 1014.7 |
| 20260831213030 | 39 | 194 | 3.2 | 14.5 | 0.00 | 0.00 | 0.00 | 34 | 1014.7 |
| 20260831212507 | 40 | 144 | 0.0 | 11.3 | 0.00 | 0.00 | 0.00 | 33 | 1014.8 |
| 20260831212008 | 40 | 199 | 0.0 | 11.3 | 0.00 | 0.00 | 0.00 | 34 | 1014.8 |
| 20260831211520 | 39 | 197 | 3.2 | 11.3 | 0.00 | 0.00 | 0.00 | 34 | 1014.9 |
| 20260831211009 | 39 | 232 | 0.0 | 11.3 | 0.00 | 0.00 | 0.00 | 35 | 1014.9 |
| 20260831210510 | 38 | 205 | 0.0 | 14.5 | 0.00 | 0.00 | 0.00 | 35 | 1014.9 |
| 20260831210023 | 38 | 238 | 4.8 | 14.5 | 0.00 | 0.00 | 0.00 | 35 | 1015.0 |
| 20260831205512 | 38 | 146 | 3.2 | 14.5 | 0.00 | 0.00 | 0.00 | 35 | 1015.1 |
| 20260831205014 | 38 | 148 | 3.2 | 14.5 | 0.00 | 0.00 | 0.00 | 34 | 1015.2 |
| 20260831204529 | 38 | 144 | 0.0 | 16.1 | 0.00 | 0.00 | 0.00 | 34 | 1015.2 |
| 20260831204014 | 38 | 160 | 0.0 | 17.7 | 0.00 | 0.00 | 0.00 | 34 | 1015.3 |
| 20260831203516 | 38 | 187 | 1.6 | 17.7 | 0.00 | 0.00 | 0.00 | 34 | 1015.4 |
| 20260831203029 | 38 | 126 | 3.2 | 11.3 | 0.00 | 0.00 | 0.00 | 35 | 1015.4 |
| 20260831202515 | 38 | 190 | 3.2 | 14.5 | 0.00 | 0.00 | 0.00 | 36 | 1015.5 |
| 20260831202015 | 38 | 137 | 4.8 | 14.5 | 0.00 | 0.00 | 0.00 | 36 | 1015.6 |
| 20260831201533 | 38 | 139 | 4.8 | 14.5 | 0.00 | 0.00 | 0.00 | 36 | 1015.7 |
| 20260831201008 | 38 | 155 | 4.8 | 14.5 | 0.00 | 0.00 | 0.00 | 36 | 1015.8 |
| 20260831200509 | 38 | 148 | 0.0 | 12.9 | 0.00 | 0.00 | 0.00 | 35 | 1015.9 |
| 20260831200023 | 38 | 164 | 1.6 | 17.7 | 0.00 | 0.00 | 0.00 | 35 | 1016.0 |
| 20260831195510 | 38 | 140 | 4.8 | 17.7 | 0.00 | 0.00 | 0.00 | 35 | 1016.0 |
| 20260831195011 | 38 | 202 | 3.2 | 16.1 | 0.00 | 0.00 | 0.00 | 36 | 1016.1 |
| 20260831194526 | 38 | 132 | 4.8 | 14.5 | 0.00 | 0.00 | 0.00 | 37 | 1016.1 |
| 20260831194015 | 38 | 161 | 3.2 | 12.9 | 0.00 | 0.00 | 0.00 | 37 | 1016.1 |
| 20260831193514 | 38 | 144 | 4.8 | 12.9 | 0.00 | 0.00 | 0.00 | 38 | 1016.2 |
| 20260831193036 | 38 | 168 | 0.0 | 12.9 | 0.00 | 0.00 | 0.00 | 39 | 1016.3 |
| 20260831192513 | 38 | 162 | 1.6 | 12.9 | 0.00 | 0.00 | 0.00 | 39 | 1016.3 |
| 20260831192004 | 38 | 189 | 3.2 | 16.1 | 0.00 | 0.00 | 0.00 | 39 | 1016.4 |
| 20260831191514 | 38 | 150 | 1.6 | 16.1 | 0.00 | 0.00 | 0.00 | 40 | 1016.4 |
| 20260831191005 | 38 | 189 | 0.0 | 16.1 | 0.00 | 0.00 | 0.00 | 40 | 1016.4 |
| 20260831190506 | 38 | 159 | 4.8 | 11.3 | 0.00 | 0.00 | 0.00 | 40 | 1016.5 |
| 20260831190018 | 38 | 190 | 0.0 | 17.7 | 0.00 | 0.00 | 0.00 | 40 | 1016.5 |
| 20260831185510 | 38 | 152 | 3.2 | 17.7 | 0.00 | 0.00 | 0.00 | 40 | 1016.6 |
| 20260831185011 | 38 | 139 | 1.6 | 17.7 | 0.00 | 0.00 | 0.00 | 40 | 1016.5 |
| 20260831184525 | 38 | 215 | 0.0 | 14.5 | 0.00 | 0.00 | 0.00 | 40 | 1016.6 |
| 20260831184003 | 38 | 148 | 6.4 | 14.5 | 0.00 | 0.00 | 0.00 | 40 | 1016.6 |
| 20260831183503 | 37 | 176 | 3.2 | 11.3 | 0.00 | 0.00 | 0.00 | 40 | 1016.7 |
| 20260831183004 | 37 | 185 | 4.8 | 17.7 | 0.00 | 0.00 | 0.00 | 42 | 1016.7 |
| 20260831182507 | 37 | 190 | 0.0 | 17.7 | 0.00 | 0.00 | 0.00 | 41 | 1016.8 |
| 20260831182006 | 37 | 164 | 3.2 | 16.1 | 0.00 | 0.00 | 0.00 | 42 | 1017.0 |
| 20260831181510 | 37 | 126 | 6.4 | 16.1 | 0.00 | 0.00 | 0.00 | 42 | 1017.1 |
| 20260831181004 | 37 | 167 | 1.6 | 11.3 | 0.00 | 0.00 | 0.00 | 44 | 1017.1 |
| 20260831180504 | 37 | 165 | 3.2 | 11.3 | 0.00 | 0.00 | 0.00 | 44 | 1017.1 |
| 20260831180019 | 37 | 180 | 1.6 | 14.5 | 0.00 | 0.00 | 0.00 | 45 | 1017.2 |
| 20260831175507 | 37 | 142 | 1.6 | 14.5 | 0.00 | 0.00 | 0.00 | 44 | 1017.2 |
| 20260831175016 | 37 | 170 | 4.8 | 12.9 | 0.00 | 0.00 | 0.00 | 45 | 1017.3 |
| 20260831174521 | 36 | 160 | 3.2 | 14.5 | 0.00 | 0.00 | 0.00 | 45 | 1017.5 |
| 20260831174010 | 36 | 156 | 8.0 | 14.5 | 0.00 | 0.00 | 0.00 | 46 | 1017.6 |
| 20260831173512 | 36 | 186 | 3.2 | 14.5 | 0.00 | 0.00 | 0.00 | 46 | 1017.6 |
| 20260831173025 | 36 | 115 | 3.2 | 12.9 | 0.00 | 0.00 | 0.00 | 46 | 1017.7 |
| 20260831172502 | 36 | 171 | 1.6 | 12.9 | 0.00 | 0.00 | 0.00 | 46 | 1017.7 |
| 20260831172003 | 36 | 153 | 4.8 | 12.9 | 0.00 | 0.00 | 0.00 | 46 | 1017.8 |
| 20260831171512 | 36 | 223 | 1.6 | 12.9 | 0.00 | 0.00 | 0.00 | 48 | 1017.9 |
| 20260831171003 | 36 | 150 | 1.6 | 12.9 | 0.00 | 0.00 | 0.00 | 48 | 1018.0 |
| 20260831170503 | 36 | 144 | 3.2 | 11.3 | 0.00 | 0.00 | 0.00 | 48 | 1018.0 |
| 20260831170023 | 36 | 165 | 1.6 | 14.5 | 0.00 | 0.00 | 0.00 | 49 | 1018.0 |
| 20260831165506 | 35 | 157 | 1.6 | 14.5 | 0.00 | 0.00 | 0.00 | 49 | 1018.0 |
| 20260831165003 | 36 | 126 | 3.2 | 14.5 | 0.00 | 0.00 | 0.00 | 50 | 1018.1 |
| 20260831164520 | 36 | 190 | 1.6 | 14.5 | 0.00 | 0.00 | 0.00 | 49 | 1018.1 |
| 20260831164012 | 36 | 185 | 1.6 | 14.5 | 0.00 | 0.00 | 0.00 | 50 | 1018.2 |
| 20260831163508 | 36 | 138 | 3.2 | 12.9 | 0.00 | 0.00 | 0.00 | 48 | 1018.2 |
| 20260831163023 | 36 | 188 | 0.0 | 11.3 | 0.00 | 0.00 | 0.00 | 47 | 1018.2 |
| 20260831162510 | 36 | 154 | 0.0 | 11.3 | 0.00 | 0.00 | 0.00 | 50 | 1018.3 |
| 20260831162011 | 36 | 188 | 0.0 | 6.4 | 0.00 | 0.00 | 0.00 | 46 | 1018.4 |
| 20260831161531 | 36 | 197 | 0.0 | 11.3 | 0.00 | 0.00 | 0.00 | 46 | 1018.3 |
| 20260831161002 | 36 | 190 | 1.6 | 11.3 | 0.00 | 0.00 | 0.00 | 47 | 1018.3 |
| 20260831160504 | 36 | 174 | 0.0 | 11.3 | 0.00 | 0.00 | 0.00 | 47 | 1018.3 |
| 20260831160008 | 35 | 236 | 0.0 | 11.3 | 0.00 | 0.00 | 0.00 | 46 | 1018.3 |
| 20260831155513 | 35 | 215 | 0.0 | 8.0 | 0.00 | 0.00 | 0.00 | 47 | 1018.3 |
| 20260831155004 | 35 | 183 | 0.0 | 6.4 | 0.00 | 0.00 | 0.00 | 47 | 1018.2 |
| 20260831154558 | 35 | 278 | 0.0 | 11.3 | 0.00 | 0.00 | 0.00 | 47 | 1018.4 |
| 20260831154005 | 35 | 255 | 0.0 | 11.3 | 0.00 | 0.00 | 0.00 | 50 | 1018.3 |
| 20260831153508 | 35 | 253 | 1.6 | 11.3 | 0.00 | 0.00 | 0.00 | 48 | 1018.3 |
| 20260831153019 | 35 | 207 | 0.0 | 11.3 | 0.00 | 0.00 | 0.00 | 49 | 1018.3 |
| 20260831152508 | 34 | 272 | 0.0 | 11.3 | 0.00 | 0.00 | 0.00 | 53 | 1018.3 |
| 20260831152013 | 34 | 217 | 0.0 | 9.7 | 0.00 | 0.00 | 0.00 | 52 | 1018.3 |
| 20260831151524 | 33 | 235 | 0.0 | 9.7 | 0.00 | 0.00 | 0.00 | 51 | 1018.3 |
| 20260831151009 | 33 | 195 | 1.6 | 9.7 | 0.00 | 0.00 | 0.00 | 52 | 1018.3 |
| 20260831150512 | 33 | 232 | 0.0 | 11.3 | 0.00 | 0.00 | 0.00 | 53 | 1018.2 |
| 20260831150027 | 33 | 242 | 0.0 | 11.3 | 0.00 | 0.00 | 0.00 | 56 | 1018.2 |
| 20260831145503 | 33 | 225 | 0.0 | 8.0 | 0.00 | 0.00 | 0.00 | 56 | 1018.1 |
| 20260831145003 | 33 | 240 | 0.0 | 8.0 | 0.00 | 0.00 | 0.00 | 58 | 1018.1 |
| 20260831144507 | 33 | 241 | 0.0 | 8.0 | 0.00 | 0.00 | 0.00 | 58 | 1018.1 |
| 20260831144006 | 33 | 210 | 0.0 | 4.8 | 0.00 | 0.00 | 0.00 | 58 | 1018.1 |
| 20260831143503 | 32 | 240 | 0.0 | 11.3 | 0.00 | 0.00 | 0.00 | 60 | 1018.1 |
| 20260831143011 | 32 | 241 | 0.0 | 11.3 | 0.00 | 0.00 | 0.00 | 59 | 1018.1 |
| 20260831142505 | 32 | 220 | 0.0 | 1.6 | 0.00 | 0.00 | 0.00 | 61 | 1018.0 |
| 20260831142011 | 32 | 220 | 0.0 | 1.6 | 0.00 | 0.00 | 0.00 | 62 | 1017.9 |
| 20260831141517 | 32 | 220 | 0.0 | 4.8 | 0.00 | 0.00 | 0.00 | 62 | 1017.9 |
| 20260831141009 | 32 | 219 | 0.0 | 4.8 | 0.00 | 0.00 | 0.00 | 63 | 1018.1 |
| 20260831140510 | 32 | 217 | 0.0 | 3.2 | 0.00 | 0.00 | 0.00 | 63 | 1018.1 |
| 20260831140024 | 31 | 219 | 0.0 | 1.6 | 0.00 | 0.00 | 0.00 | 64 | 1018.0 |
| 20260831135511 | 31 | 215 | 0.0 | 3.2 | 0.00 | 0.00 | 0.00 | 65 | 1017.8 |
| 20260831135014 | 31 | 216 | 0.0 | 3.2 | 0.00 | 0.00 | 0.00 | 66 | 1017.8 |
| 20260831134532 | 31 | 212 | 0.0 | 6.4 | 0.00 | 0.00 | 0.00 | 66 | 1017.7 |
| 20260831134006 | 30 | 227 | 0.0 | 6.4 | 0.00 | 0.00 | 0.00 | 67 | 1017.6 |
| 20260831133502 | 30 | 198 | 0.0 | 4.8 | 0.00 | 0.00 | 0.00 | 68 | 1017.6 |
| 20260831133026 | 30 | 190 | 0.0 | 6.4 | 0.00 | 0.00 | 0.00 | 70 | 1017.6 |
| 20260831132509 | 29 | 190 | 0.0 | 6.4 | 0.00 | 0.00 | 0.00 | 70 | 1017.5 |
| 20260831132009 | 29 | 190 | 0.0 | 3.2 | 0.00 | 0.00 | 0.00 | 71 | 1017.3 |
| 20260831131517 | 28 | 184 | 0.0 | 3.2 | 0.00 | 0.00 | 0.00 | 71 | 1017.3 |
| 20260831131012 | 28 | 221 | 0.0 | 3.2 | 0.00 | 0.00 | 0.00 | 72 | 1017.3 |
| 20260831130510 | 28 | 198 | 0.0 | 1.6 | 0.00 | 0.00 | 0.00 | 73 | 1017.2 |
| 20260831130024 | 27 | 200 | 0.0 | 3.2 | 0.00 | 0.00 | 0.00 | 74 | 1017.1 |
| 20260831125510 | 27 | 200 | 0.0 | 3.2 | 0.00 | 0.00 | 0.00 | 75 | 1017.1 |
| 20260831125013 | 27 | 192 | 0.0 | 3.2 | 0.00 | 0.00 | 0.00 | 76 | 1017.1 |
| 20260831124527 | 26 | 185 | 0.0 | 1.6 | 0.00 | 0.00 | 0.00 | 76 | 1017.0 |
| 20260831124011 | 26 | 184 | 0.0 | 1.6 | 0.00 | 0.00 | 0.00 | 77 | 1017.0 |
| 20260831123516 | 26 | 184 | 0.0 | 0.0 | 0.00 | 0.00 | 0.00 | 77 | 1016.9 |
| 20260831123036 | 26 | 184 | 0.0 | 0.0 | 0.00 | 0.00 | 0.00 | 77 | 1016.8 |
| 20260831122503 | 26 | 184 | 0.0 | 0.0 | 0.00 | 0.00 | 0.00 | 77 | 1016.7 |
| 20260831122005 | 26 | 184 | 0.0 | 1.6 | 0.00 | 0.00 | 0.00 | 77 | 1016.7 |
| 20260831121512 | 26 | 184 | 0.0 | 1.6 | 0.00 | 0.00 | 0.00 | 76 | 1016.6 |
| 20260831121006 | 26 | 184 | 0.0 | 1.6 | 0.00 | 0.00 | 0.00 | 76 | 1016.6 |
| 20260831120508 | 26 | 184 | 0.0 | 1.6 | 0.00 | 0.00 | 0.00 | 76 | 1016.6 |
| 20260831120016 | 26 | 182 | 0.0 | 1.6 | 0.00 | 0.00 | 0.00 | 75 | 1016.6 |
| 20260831115510 | 26 | 182 | 0.0 | 1.6 | 0.00 | 0.00 | 0.00 | 75 | 1016.4 |
| 20260831115012 | 26 | 181 | 0.0 | 1.6 | 0.00 | 0.00 | 0.00 | 75 | 1016.4 |
| 20260831114526 | 26 | 181 | 0.0 | 3.2 | 0.00 | 0.00 | 0.00 | 75 | 1016.4 |
| 20260831114012 | 26 | 182 | 0.0 | 3.2 | 0.00 | 0.00 | 0.00 | 74 | 1016.3 |
| 20260831113520 | 26 | 180 | 0.0 | 1.6 | 0.00 | 0.00 | 0.00 | 74 | 1016.2 |
| 20260831113032 | 26 | 180 | 0.0 | 3.2 | 0.00 | 0.00 | 0.00 | 74 | 1016.2 |
| 20260831112515 | 26 | 180 | 0.0 | 3.2 | 0.00 | 0.00 | 0.00 | 74 | 1016.2 |
| 20260831112020 | 26 | 180 | 0.0 | 4.8 | 0.00 | 0.00 | 0.00 | 74 | 1016.0 |
| 20260831111530 | 26 | 180 | 0.0 | 4.8 | 0.00 | 0.00 | 0.00 | 74 | 1015.9 |
| 20260831111003 | 26 | 180 | 0.0 | 6.4 | 0.00 | 0.00 | 0.00 | 73 | 1015.9 |
| 20260831110507 | 26 | 180 | 0.0 | 6.4 | 0.00 | 0.00 | 0.00 | 73 | 1015.8 |
| 20260831110017 | 26 | 187 | 0.0 | 1.6 | 0.00 | 0.00 | 0.00 | 73 | 1015.8 |
| 20260831105507 | 26 | 187 | 0.0 | 4.8 | 0.00 | 0.00 | 0.00 | 72 | 1015.9 |
| 20260831105008 | 26 | 188 | 0.0 | 4.8 | 0.00 | 0.00 | 0.00 | 72 | 1015.9 |
| 20260831104524 | 26 | 190 | 0.0 | 1.6 | 0.00 | 0.00 | 0.00 | 72 | 1015.8 |
| 20260831104012 | 26 | 190 | 0.0 | 1.6 | 0.00 | 0.00 | 0.00 | 72 | 1015.8 |
| 20260831103512 | 26 | 190 | 0.0 | 1.6 | 0.00 | 0.00 | 0.00 | 71 | 1015.7 |
| 20260831103028 | 26 | 190 | 0.0 | 1.6 | 0.00 | 0.00 | 0.00 | 71 | 1015.8 |
| 20260831102514 | 26 | 190 | 0.0 | 1.6 | 0.00 | 0.00 | 0.00 | 71 | 1015.7 |
| 20260831102006 | 26 | 190 | 0.0 | 1.6 | 0.00 | 0.00 | 0.00 | 70 | 1015.7 |
| 20260831101508 | 27 | 190 | 0.0 | 1.6 | 0.00 | 0.00 | 0.00 | 70 | 1015.7 |
| 20260831101004 | 27 | 190 | 0.0 | 1.6 | 0.00 | 0.00 | 0.00 | 70 | 1015.8 |
| 20260831100503 | 27 | 190 | 0.0 | 1.6 | 0.00 | 0.00 | 0.00 | 70 | 1015.7 |
| 20260831100022 | 27 | 190 | 0.0 | 4.8 | 0.00 | 0.00 | 0.00 | 70 | 1015.8 |
| 20260831095503 | 27 | 190 | 0.0 | 6.4 | 0.00 | 0.00 | 0.00 | 69 | 1015.8 |
| 20260831095008 | 27 | 186 | 0.0 | 6.4 | 0.00 | 0.00 | 0.00 | 69 | 1015.8 |
| 20260831094521 | 27 | 186 | 0.0 | 4.8 | 0.00 | 0.00 | 0.00 | 69 | 1015.8 |
| 20260831094010 | 27 | 186 | 0.0 | 8.0 | 0.00 | 0.00 | 0.00 | 69 | 1015.7 |
| 20260831093510 | 27 | 184 | 0.0 | 8.0 | 0.00 | 0.00 | 0.00 | 69 | 1015.8 |
| 20260831093031 | 27 | 201 | 0.0 | 0.0 | 0.00 | 0.00 | 0.00 | 69 | 1015.6 |
| 20260831092517 | 27 | 202 | 0.0 | 0.0 | 0.00 | 0.00 | 0.00 | 68 | 1015.6 |
| 20260831092011 | 27 | 202 | 0.0 | 0.0 | 0.00 | 0.00 | 0.00 | 67 | 1015.6 |
| 20260831091526 | 27 | 202 | 0.0 | 0.0 | 0.00 | 0.00 | 0.00 | 67 | 1015.5 |
| 20260831091003 | 27 | 202 | 0.0 | 0.0 | 0.00 | 0.00 | 0.00 | 66 | 1015.5 |
| 20260831090504 | 27 | 202 | 0.0 | 0.0 | 0.00 | 0.00 | 0.00 | 66 | 1015.5 |
| 20260831090008 | 27 | 202 | 0.0 | 0.0 | 0.00 | 0.00 | 0.00 | 65 | 1015.5 |
| 20260831085503 | 27 | 210 | 0.0 | 0.0 | 0.00 | 0.00 | 0.00 | 65 | 1015.5 |
| 20260831085008 | 27 | 211 | 0.0 | 0.0 | 0.00 | 0.00 | 0.00 | 64 | 1015.5 |
| 20260831084515 | 27 | 211 | 0.0 | 0.0 | 0.00 | 0.00 | 0.00 | 64 | 1015.5 |
| 20260831084008 | 27 | 211 | 0.0 | 0.0 | 0.00 | 0.00 | 0.00 | 63 | 1015.5 |
| 20260831083508 | 27 | 211 | 0.0 | 0.0 | 0.00 | 0.00 | 0.00 | 63 | 1015.4 |
| 20260831083036 | 28 | 211 | 0.0 | 0.0 | 0.00 | 0.00 | 0.00 | 64 | 1015.3 |
| 20260831082509 | 28 | 211 | 0.0 | 0.0 | 0.00 | 0.00 | 0.00 | 63 | 1015.3 |
| 20260831082011 | 28 | 211 | 0.0 | 0.0 | 0.00 | 0.00 | 0.00 | 63 | 1015.3 |